Flag for Norway Weather past 2 weeks in Osøyro, Norway

Now
39 °F

Passing clouds.


Feels Like: 36 °F
Forecast: 40 / 45 °F
Wind: 5 mph from South

Location: Bergen / Flesland

Current Time: Mar 28, 2015 at 12:12:32 AM

Latest Report: Mar 27, 2015 at 11:00 PM


Visibility: 17 mi

Pressure: 29.93 "Hg

Humidity: 95%

Dew point: 38 °F

Location of OsøyroLocation

Historic Weather in Osøyro — Graph

°F

Osøyro temperature yesterday

Maximum temperature yesterday: 43 °F (at 2:00 PM)
Minimum temperature yesterday: 35 °F (at 6:00 AM)
Average temperature yesterday: 39 °F

Past Weeks' High & Low Weather Summary

 TemperatureHumidityPressure
High54 °F (Mar 17, 2:00 PM)97% (Mar 19, 10:00 AM)30.78 "Hg (Mar 19, 10:00 AM)
Low29 °F (Mar 15, 7:00 AM)24% (Mar 15, 3:00 PM)29.55 "Hg (Mar 23, 9:00 AM)
Average41 °F73%30.24 "Hg
* Reported Mar 12 9:00 PM — Mar 27 9:00 PM, Osøyro, Weather by CustomWeather, © 2015

Note: Actual official high and low records may vary slightly from our data, if they occured in-between our weather recording intervals... More about our weather records

Advertising

Osøyro weather history for previous 24 hours

 ConditionsComfort  
Time TempWeatherWind HumidityBarometerVisibility
9:00 PM
Fri, Mar 27
40 °FLots of rain. Low clouds.2 mph92%29.91 "Hg4 mi
8:00 PM40 °FLight rain. Overcast.6 mph92%29.90 "Hg7 mi
7:00 PM40 °FLots of rain. Overcast.7 mph90%29.89 "Hg4 mi
6:00 PM41 °FOvercast.7 mph84%29.88 "Hg28 mi
5:00 PM42 °FOvercast.6 mph80%29.87 "Hg28 mi
4:00 PM41 °FRain showers. Overcast.5 mph77%29.87 "Hg22 mi
3:00 PM42 °FOvercast.5 mph74%29.86 "Hg25 mi
2:00 PM43 °FPassing clouds.5 mph63%29.86 "Hg19 mi
1:00 PM43 °FPassing clouds.5 mph60%29.86 "Hg22 mi
12:00 PM43 °FPassing clouds.3 mph61%29.86 "Hg22 mi
11:00 AM41 °FSunny.2 mph71%29.85 "Hg22 mi
10:00 AM40 °FSunny.2 mph70%29.84 "Hg25 mi
9:00 AM39 °FSunny.1 mph70%29.83 "Hg28 mi
8:00 AM35 °FSunny.1 mph75%29.82 "Hg31 mi
7:00 AM35 °FSunny.1 mph72%29.81 "Hg31 mi
6:00 AM35 °FOvercast.No wind80%29.80 "Hg31 mi
5:00 AM36 °FOvercast.1 mph72%29.78 "Hg31 mi
3:00 AM36 °FOvercast.1 mph72%29.77 "Hg31 mi
2:00 AM36 °FOvercast.1 mph68%29.76 "Hg31 mi
1:00 AM36 °FOvercast.1 mph68%29.74 "Hg31 mi
12:00 AM37 °FOvercast.1 mph67%29.72 "Hg31 mi
Weather by CustomWeather, © 2015

See weather overviewHow to use our weather pages